STARLINK-3798, 52371

Orbit data source: Space-Track

STARLINK-3798, 52371 is a payload satellite owned by SpaceX/Seattle (US) in LEO that was launched on Fri, 29 Apr 2022 UTC via an FALCON 9 launch vehicle from the Air Force Eastern Test Range (AFETR). Payload-class satellites include a variety of spacecraft equipped with specific instruments for various scientific and technological missions. These include communications satellites like Starlink; space stations such as the ISS; scientific satellites like the Hubble; Earth observation satellites from companies like Planet Labs, Umbra, and HawkEye 360; GPS; miniature CubeSats for education and research; and military/defense satellites.

Loading next visibility...
Identifier
52371, 2022-045AS
Orbit
LEO
Country
Flag of USUS
Related business
Manufacturer
SpaceX/Seattle
Mission
Operational Commercial Communications
Bus & Motor
STARLINK, Unknown motor
Mass
297 kg wet, ~275 kg dry
Launch date (UTC)
2022-04-29 (4 years ago)
Launch vehicle
FALCON 9
Launch site
Air Force Eastern Test Range (AFETR)
Object type
Payload
Rocket body
Debris
Shape & HBR
Box + 1 Pan, 10.1 m
Radar Cross Section
11.087 m², Large (>1 m²)

Expand to show TLE details & history
Last TLE update: 8 hours ago

TLE from 8 hours ago
0 STARLINK-3798
1 52371U 22045AS  26119.83918088 -.00000140  00000-0  92656-5 0  9994
2 52371  53.2187 319.5125 0001440  89.5560 270.5598 15.08834669223636
Epoch: 2026-04-29T20:08Z
TLE epoch observation values (Epoch: 2026-04-29T20:08:25.228Z)
Latitude
0.00007°
Longitude
159.61305°
Altitude
540.648 km
Speed
7.593 km/s
True Right ascension
21h 18m 03s
True Declination
0° 00' 00"
Sunlit
Object was in daylight at epoch
Visualization orbit readout
Latitude
Unknown
Longitude
Unknown
Altitude
Unknown
Speed
Unknown
Apparent Right ascension
Unknown
Apparent Declination
Unknown
Sunlit
N/A
Visualization observer readout
Local Sidereal Time
12:08:22
Azimuth
Unknown
Elevation
Unknown
Doppler factor
Unknown
Orbital elements
Apogee altitude
541.001 km
Perigee altitude
539.008 km
Semi-major axis
6,918.141 km
Eccentricity
0.00014
Inclination
53.2187°
RAAN
319.5125°
Arg. of periapsis
89.556°
True anomaly
270.5433°
Mean anomaly
270.5598°
Eccentric anomaly
270.55155°
Mean motion
3.77189 °/min
Orbital period
95.44 mins
BSTAR
0.0000092656
Loading maneuver chart data...
Computing Atmospheric mass density...
Loading historical data...
Loading historical data...
Loading historical data...
Loading historical data...
Loading historical data...
Loading historical data...
Loading historical data...

Documentation

Showing up to 5 results
|